IK0TIX Weather Reports


time (UTC)temp
F
wind
direction
speed
knots
gust
knots
rain 1hr
in
rain 24hr
in
rain mn
in
humidity
%
barometer
mb
20260906075930 83 1 1.7 3.5 0.00 0.00 0.00 64 1020.6
20260906075434 82 29 0.9 3.5 0.00 0.00 0.00 63 1020.6
20260906074955 82 11 0.9 1.7 0.00 0.00 0.00 63 1020.5
20260906074431 82 30 0.0 0.0 0.00 0.00 0.00 63 1020.5
20260906073959 81 11 0.0 0.0 0.00 0.00 0.00 62 1020.4
20260906073501 81 15 0.0 0.0 0.00 0.00 0.00 63 1020.5
20260906072937 81 30 0.0 0.0 0.00 0.00 0.00 63 1020.4
20260906072505 80 36 0.0 0.9 0.00 0.00 0.00 63 1020.5
20260906072011 80 30 0.0 3.5 0.00 0.00 0.00 63 1020.4
20260906071448 80 34 0.9 3.5 0.00 0.00 0.00 63 1020.4
20260906070945 80 15 0.9 2.6 0.00 0.00 0.00 64 1020.4
20260906070446 79 32 0.0 2.6 0.00 0.00 0.00 65 1020.4
20260906065944 79 29 0.0 2.6 0.00 0.00 0.00 65 1020.4
20260906065442 79 25 0.0 2.6 0.00 0.00 0.00 65 1020.3
20260906065008 78 23 0.9 3.5 0.00 0.00 0.00 65 1020.3
20260906064445 78 19 0.9 3.5 0.00 0.00 0.00 66 1020.3
20260906063950 78 22 0.9 2.6 0.00 0.00 0.00 66 1020.3
20260906063428 78 11 0.9 2.6 0.00 0.00 0.00 66 1020.3
20260906062924 77 18 0.0 2.6 0.00 0.00 0.00 67 1020.3
20260906062453 77 18 0.0 1.7 0.00 0.00 0.00 68 1020.2
20260906061947 77 63 0.0 5.2 0.00 0.00 0.00 69 1020.2
20260906061455 76 63 2.6 5.2 0.00 0.00 0.00 68 1020.2
20260906060950 76 80 1.7 6.1 0.00 0.00 0.00 69 1020.2
20260906060449 76 58 2.6 6.1 0.00 0.00 0.00 69 1020.1
20260906055947 76 49 0.9 4.3 0.00 0.00 0.00 69 1020.2
20260906055444 75 41 2.6 6.1 0.00 0.00 0.00 69 1020.1
20260906054943 75 36 3.5 6.1 0.00 0.00 0.00 69 1020.1
20260906054440 76 30 1.7 5.2 0.00 0.00 0.00 70 1020.1
20260906053937 75 81 1.7 6.1 0.00 0.00 0.00 70 1020.0
20260906053435 75 65 1.7 4.3 0.00 0.00 0.00 71 1020.0
20260906052931 75 59 2.6 4.3 0.00 0.00 0.00 70 1019.9
20260906052515 75 49 1.7 4.3 0.00 0.00 0.00 71 1019.9
20260906051951 75 59 0.9 4.3 0.00 0.00 0.00 71 1019.9
20260906051449 75 48 1.7 4.3 0.00 0.00 0.00 71 1019.9
20260906050946 75 49 0.9 5.2 0.00 0.00 0.00 72 1019.8
20260906050445 75 66 1.7 5.2 0.00 0.00 0.00 71 1019.8
20260906045942 75 45 1.7 4.3 0.00 0.00 0.00 72 1019.8
20260906045440 75 42 0.9 5.2 0.00 0.00 0.00 71 1019.8
20260906044937 75 31 0.9 5.2 0.00 0.00 0.00 72 1019.7
20260906044435 75 42 1.7 4.3 0.00 0.00 0.00 72 1019.7
20260906043936 75 18 0.9 4.3 0.00 0.00 0.00 72 1019.6
20260906043433 75 70 0.9 4.3 0.00 0.00 0.00 72 1019.6
20260906042925 75 57 0.9 4.3 0.00 0.00 0.00 72 1019.6
20260906042454 75 46 1.7 4.3 0.00 0.00 0.00 72 1019.5
20260906041952 75 21 0.9 4.3 0.00 0.00 0.00 72 1019.6
20260906041450 75 20 1.7 4.3 0.00 0.00 0.00 72 1019.6
20260906040947 75 24 0.9 4.3 0.00 0.00 0.00 73 1019.6
20260906040445 75 55 1.7 4.3 0.00 0.00 0.00 72 1019.6
20260906035942 75 36 1.7 3.5 0.00 0.00 0.00 72 1019.5
20260906035439 75 28 0.9 3.5 0.00 0.00 0.00 72 1019.6
20260906034934 75 21 0.9 3.5 0.00 0.00 0.00 72 1019.4
20260906034500 76 44 0.9 3.5 0.00 0.00 0.00 72 1019.4
20260906033937 76 37 0.0 4.3 0.00 0.00 0.00 72 1019.4
20260906033428 76 20 1.7 4.3 0.00 0.00 0.00 72 1019.4
20260906032926 76 1 1.7 5.2 0.00 0.00 0.00 72 1019.3
20260906032455 76 40 1.7 5.2 0.00 0.00 0.00 72 1019.3
20260906031953 76 353 2.6 4.3 0.00 0.00 0.00 72 1019.4
20260906031451 76 65 1.7 3.5 0.00 0.00 0.00 72 1019.3
20260906030927 76 11 1.7 4.3 0.00 0.00 0.00 72 1019.4
20260906030456 76 24 2.6 4.3 0.00 0.00 0.00 72 1019.3
20260906025954 76 38 0.9 5.2 0.00 0.00 0.00 72 1019.3
20260906025429 76 46 2.6 5.2 0.00 0.00 0.00 72 1019.3
20260906025010 76 25 1.7 3.5 0.00 0.00 0.00 71 1019.4
20260906024447 76 67 0.9 5.2 0.00 0.00 0.00 72 1019.4
20260906023955 76 57 1.7 5.2 0.00 0.00 0.00 71 1019.4
20260906023451 77 50 2.6 4.3 0.00 0.00 0.00 71 1019.4
20260906022950 77 40 1.7 5.2 0.00 0.00 0.00 71 1019.4
20260906022448 77 38 1.7 5.2 0.00 0.00 0.00 70 1019.5
20260906021945 77 33 1.7 4.3 0.00 0.00 0.00 70 1019.5
20260906021442 77 21 0.9 3.5 0.00 0.00 0.00 71 1019.4
20260906020951 77 39 0.9 2.6 0.00 0.00 0.00 70 1019.4
20260906020449 77 43 0.9 2.6 0.00 0.00 0.00 70 1019.4
20260906015947 77 59 0.9 3.5 0.00 0.00 0.00 70 1019.4
20260906015438 77 56 1.7 3.5 0.00 0.00 0.00 70 1019.4
20260906014938 77 60 1.7 3.5 0.00 0.00 0.00 70 1019.4
20260906014434 78 71 1.7 3.5 0.00 0.00 0.00 70 1019.4
20260906013931 78 47 0.9 3.5 0.00 0.00 0.00 69 1019.5
20260906013429 78 49 0.9 2.6 0.00 0.00 0.00 69 1019.5
20260906012925 78 52 0.9 2.6 0.00 0.00 0.00 68 1019.5
20260906012456 78 52 0.9 2.6 0.00 0.00 0.00 68 1019.5
20260906011952 78 55 0.9 2.6 0.00 0.00 0.00 68 1019.6
20260906011450 78 59 0.9 2.6 0.00 0.00 0.00 67 1019.5
20260906010947 78 47 0.9 2.6 0.00 0.00 0.00 67 1019.5
20260906010444 79 34 0.9 2.6 0.00 0.00 0.00 66 1019.6
20260906005940 79 107 0.0 2.6 0.00 0.00 0.00 66 1019.5
20260906005434 79 107 0.0 3.5 0.00 0.00 0.00 66 1019.5
20260906004931 79 109 1.7 3.5 0.00 0.00 0.00 66 1019.5
20260906004428 79 110 0.0 0.0 0.00 0.00 0.00 66 1019.4
20260906003955 79 110 0.0 0.0 0.00 0.00 0.00 66 1019.5
20260906003450 79 110 0.0 2.6 0.00 0.00 0.00 66 1019.5
20260906002927 79 110 0.0 2.6 0.00 0.00 0.00 67 1019.5
20260906002454 79 110 0.0 0.9 0.00 0.00 0.00 66 1019.5
20260906001931 79 110 0.0 2.6 0.00 0.00 0.00 65 1019.6
20260906001430 79 110 0.0 2.6 0.00 0.00 0.00 65 1019.6
20260906000927 79 110 0.9 2.6 0.00 0.00 0.00 65 1019.6
20260906000451 79 110 0.9 2.6 0.00 0.00 0.00 65 1019.6
20260905235950 79 109 0.9 2.6 0.00 0.00 0.00 65 1019.6
20260905235448 79 107 0.9 2.6 0.00 0.00 0.00 65 1019.6
20260905234946 79 107 0.0 1.7 0.00 0.00 0.00 65 1019.7
20260905234445 79 107 0.0 2.6 0.00 0.00 0.00 66 1019.8
20260905233941 79 107 0.9 2.6 0.00 0.00 0.00 66 1019.8
20260905233439 79 107 0.9 2.6 0.00 0.00 0.00 65 1019.8
20260905232936 79 118 0.9 2.6 0.00 0.00 0.00 65 1019.8
20260905232434 79 111 0.0 0.0 0.00 0.00 0.00 66 1019.7
20260905231939 79 114 0.0 0.0 0.00 0.00 0.00 65 1019.8
20260905231436 79 118 0.0 2.6 0.00 0.00 0.00 66 1019.8
20260905230935 79 118 0.9 2.6 0.00 0.00 0.00 66 1019.7
20260905230458 80 115 0.9 2.6 0.00 0.00 0.00 66 1019.7
20260905225942 80 113 0.0 2.6 0.00 0.00 0.00 66 1019.7
20260905225442 80 96 0.0 2.6 0.00 0.00 0.00 67 1019.6
20260905224938 80 96 0.0 2.6 0.00 0.00 0.00 67 1019.7
20260905224444 80 96 0.9 2.6 0.00 0.00 0.00 66 1019.8
20260905224008 80 103 1.7 2.6 0.00 0.00 0.00 66 1019.8
20260905223443 80 102 0.9 2.6 0.00 0.00 0.00 66 1019.8
20260905222952 80 98 0.0 0.0 0.00 0.00 0.00 68 1019.9
20260905222445 80 98 0.0 0.0 0.00 0.00 0.00 68 1019.9
20260905221942 80 98 0.0 2.6 0.00 0.00 0.00 69 1019.8
20260905221440 80 98 0.9 3.5 0.00 0.00 0.00 68 1019.8
20260905220936 80 104 2.6 3.5 0.00 0.00 0.00 68 1019.8
20260905220434 81 161 0.9 2.6 0.00 0.00 0.00 68 1019.7
20260905215950 81 168 0.0 0.0 0.00 0.00 0.00 68 1019.8
20260905215427 81 168 0.0 0.0 0.00 0.00 0.00 68 1019.6
20260905215015 81 168 0.0 0.0 0.00 0.00 0.00 68 1019.7
20260905214451 81 168 0.0 0.0 0.00 0.00 0.00 68 1019.7
20260905214012 81 168 0.0 0.0 0.00 0.00 0.00 68 1019.7
20260905213448 81 168 0.0 0.0 0.00 0.00 0.00 68 1019.6
20260905212946 81 168 0.0 0.0 0.00 0.00 0.00 68 1019.7
20260905212444 81 168 0.0 0.0 0.00 0.00 0.00 68 1019.7
20260905212011 81 168 0.0 0.0 0.00 0.00 0.00 68 1019.6
20260905211447 81 168 0.0 0.0 0.00 0.00 0.00 68 1019.7
20260905210944 81 168 0.0 0.0 0.00 0.00 0.00 68 1019.8
20260905210441 81 168 0.0 0.0 0.00 0.00 0.00 68 1019.6
20260905205939 81 168 0.0 0.0 0.00 0.00 0.00 68 1019.6
20260905205438 81 168 0.0 0.0 0.00 0.00 0.00 68 1019.7
20260905204937 81 168 0.0 0.0 0.00 0.00 0.00 68 1019.7
20260905204429 81 168 0.0 0.0 0.00 0.00 0.00 69 1019.6
20260905203928 81 168 0.0 0.0 0.00 0.00 0.00 69 1019.7
20260905203427 81 168 0.0 0.0 0.00 0.00 0.00 69 1019.6
20260905202925 81 168 0.0 0.0 0.00 0.00 0.00 69 1019.5
20260905202454 81 168 0.0 1.7 0.00 0.00 0.00 68 1019.5
20260905201952 82 168 0.0 1.7 0.00 0.00 0.00 68 1019.6
20260905201427 82 178 0.0 0.0 0.00 0.00 0.00 68 1019.6
20260905200952 82 178 0.0 0.0 0.00 0.00 0.00 67 1019.6
20260905200451 82 178 0.0 0.9 0.00 0.00 0.00 67 1019.6
20260905195950 82 178 0.0 0.9 0.00 0.00 0.00 66 1019.6
20260905195445 82 256 0.0 0.9 0.00 0.00 0.00 66 1019.7
20260905194947 83 256 0.0 0.9 0.00 0.00 0.00 66 1019.6
20260905194444 83 256 0.0 0.0 0.00 0.00 0.00 67 1019.6
20260905193942 83 256 0.0 0.0 0.00 0.00 0.00 66 1019.6
20260905193436 82 256 0.0 0.0 0.00 0.00 0.00 67 1019.5
20260905192934 82 256 0.0 0.0 0.00 0.00 0.00 67 1019.5
20260905192433 82 256 0.0 0.9 0.00 0.00 0.00 67 1019.5
20260905191931 82 256 0.0 2.6 0.00 0.00 0.00 67 1019.4
20260905191429 82 256 0.0 2.6 0.00 0.00 0.00 67 1019.4
20260905190956 82 256 0.0 2.6 0.00 0.00 0.00 67 1019.4
20260905190431 82 256 0.9 3.5 0.00 0.00 0.00 66 1019.3
20260905185928 82 254 0.9 3.5 0.00 0.00 0.00 66 1019.3
20260905185452 82 260 1.7 2.6 0.00 0.00 0.00 66 1019.3
20260905184928 83 254 1.7 4.3 0.00 0.00 0.00 65 1019.3
20260905184426 83 244 1.7 4.3 0.00 0.00 0.00 65 1019.3
20260905183955 83 283 1.7 3.5 0.00 0.00 0.00 65 1019.2
20260905183453 83 267 1.7 4.3 0.00 0.00 0.00 64 1019.1
20260905182953 83 257 2.6 4.3 0.00 0.00 0.00 64 1019.1
20260905182451 83 273 0.9 4.3 0.00 0.00 0.00 63 1019.0
20260905181949 83 255 1.7 6.1 0.00 0.00 0.00 63 1019.0
20260905181448 83 284 2.6 6.1 0.00 0.00 0.00 62 1019.0
20260905180926 84 242 2.6 6.1 0.00 0.00 0.00 62 1018.9
20260905180448 84 235 2.6 5.2 0.00 0.00 0.00 62 1018.8
20260905175947 84 269 2.6 6.1 0.00 0.00 0.00 62 1018.8
20260905175444 84 287 2.6 6.1 0.00 0.00 0.00 61 1018.8
20260905174942 85 241 1.7 7.8 0.00 0.00 0.00 61 1018.7
20260905174441 85 252 2.6 7.8 0.00 0.00 0.00 60 1018.6
20260905173938 85 248 2.6 8.7 0.00 0.00 0.00 60 1018.5
20260905173504 86 244 1.7 8.7 0.00 0.00 0.00 59 1018.5
20260905172948 86 247 4.3 8.7 0.00 0.00 0.00 58 1018.5
20260905172446 86 266 3.5 7.8 0.00 0.00 0.00 57 1018.4
20260905171925 87 256 4.3 7.8 0.00 0.00 0.00 56 1018.3
20260905171453 87 271 3.5 10.4 0.00 0.00 0.00 55 1018.4
20260905170947 88 235 6.1 10.4 0.00 0.00 0.00 55 1018.4
20260905170445 88 261 4.3 9.6 0.00 0.00 0.00 54 1018.4
20260905165943 88 283 4.3 7.0 0.00 0.00 0.00 54 1018.4
20260905165441 89 257 4.3 11.3 0.00 0.00 0.00 53 1018.4
20260905164939 90 317 2.6 12.2 0.00 0.00 0.00 52 1018.5
20260905164438 90 233 7.0 12.2 0.00 0.00 0.00 51 1018.4
20260905163938 90 316 4.3 10.4 0.00 0.00 0.00 50 1018.3
20260905163436 91 276 6.1 9.6 0.00 0.00 0.00 49 1018.3
20260905162935 91 213 7.0 10.4 0.00 0.00 0.00 48 1018.3
20260905162435 92 276 3.5 8.7 0.00 0.00 0.00 47 1018.2
20260905161934 92 288 3.5 8.7 0.00 0.00 0.00 46 1018.2
20260905161433 92 246 5.2 9.6 0.00 0.00 0.00 47 1018.1
20260905160934 92 213 1.7 7.0 0.00 0.00 0.00 49 1018.1
20260905160459 92 255 2.6 10.4 0.00 0.00 0.00 50 1018.1
20260905160005 93 241 5.2 10.4 0.00 0.00 0.00 50 1018.2
20260905155441 93 223 4.3 11.3 0.00 0.00 0.00 49 1018.2
20260905155007 93 273 3.5 11.3 0.00 0.00 0.00 48 1018.2
20260905154444 93 303 5.2 10.4 0.00 0.00 0.00 47 1018.2
20260905153951 94 233 7.8 10.4 0.00 0.00 0.00 43 1018.2
20260905153448 94 248 7.0 10.4 0.00 0.00 0.00 44 1018.3
20260905152944 94 248 2.6 8.7 0.00 0.00 0.00 45 1018.3
20260905152440 94 227 5.2 8.7 0.00 0.00 0.00 46 1018.3
20260905151939 94 251 3.5 8.7 0.00 0.00 0.00 45 1018.4
20260905151506 93 198 3.5 8.7 0.00 0.00 0.00 45 1018.3
20260905150944 93 283 3.5 7.8 0.00 0.00 0.00 46 1018.3
20260905150441 93 250 3.5 7.8 0.00 0.00 0.00 48 1018.4
20260905145937 93 230 3.5 9.6 0.00 0.00 0.00 49 1018.4
20260905145436 93 242 5.2 12.2 0.00 0.00 0.00 50 1018.4
20260905144930 92 252 6.1 12.2 0.00 0.00 0.00 50 1018.5
20260905144431 92 271 5.2 13.0 0.00 0.00 0.00 50 1018.5
20260905143930 92 258 7.0 13.0 0.00 0.00 0.00 51 1018.5
20260905143435 92 235 4.3 10.4 0.00 0.00 0.00 51 1018.5
20260905142929 92 277 5.2 12.2 0.00 0.00 0.00 50 1018.5
20260905142425 92 257 3.5 12.2 0.00 0.00 0.00 50 1018.5
20260905141952 92 223 7.0 13.0 0.00 0.00 0.00 51 1018.6
20260905141449 92 229 4.3 13.0 0.00 0.00 0.00 49 1018.7
20260905140947 93 286 5.2 13.0 0.00 0.00 0.00 49 1018.7
20260905140454 93 246 5.2 13.0 0.00 0.00 0.00 50 1018.6
20260905135952 93 257 2.6 13.0 0.00 0.00 0.00 47 1018.6
20260905135451 93 258 5.2 13.0 0.00 0.00 0.00 47 1018.7
20260905134948 93 281 6.1 13.0 0.00 0.00 0.00 47 1018.7
20260905134446 93 219 5.2 13.0 0.00 0.00 0.00 46 1018.7
20260905134009 92 265 7.0 13.0 0.00 0.00 0.00 46 1018.9
20260905133446 93 292 6.1 13.0 0.00 0.00 0.00 45 1018.8
20260905132924 93 262 6.1 12.2 0.00 0.00 0.00 45 1018.9
20260905132453 93 269 4.3 13.0 0.00 0.00 0.00 44 1018.9
20260905131948 94 304 7.0 13.0 0.00 0.00 0.00 43 1019.0
20260905131447 95 257 5.2 13.9 0.00 0.00 0.00 41 1018.9
20260905130944 95 269 7.0 13.9 0.00 0.00 0.00 40 1018.9
20260905130442 95 248 5.2 12.2 0.00 0.00 0.00 38 1018.9
20260905125940 95 242 7.0 12.2 0.00 0.00 0.00 39 1018.9
20260905125437 95 261 7.0 12.2 0.00 0.00 0.00 39 1018.9
20260905124936 95 272 7.0 12.2 0.00 0.00 0.00 37 1018.9
20260905124433 95 258 7.0 11.3 0.00 0.00 0.00 38 1018.9
20260905123929 95 220 3.5 11.3 0.00 0.00 0.00 38 1018.9
20260905123451 95 238 3.5 10.4 0.00 0.00 0.00 38 1018.8
20260905122950 94 244 7.0 10.4 0.00 0.00 0.00 40 1018.9
20260905122450 94 265 6.1 11.3 0.00 0.00 0.00 41 1018.9
20260905121949 95 246 4.3 11.3 0.00 0.00 0.00 40 1019.0
20260905121444 94 263 3.5 9.6 0.00 0.00 0.00 39 1018.9
20260905120942 94 236 4.3 10.4 0.00 0.00 0.00 37 1019.0
20260905120442 94 309 5.2 10.4 0.00 0.00 0.00 40 1019.1
20260905115939 94 238 2.6 9.6 0.00 0.00 0.00 38 1019.0
20260905115439 94 231 5.2 10.4 0.00 0.00 0.00 38 1019.1
20260905114937 94 330 5.2 10.4 0.00 0.00 0.00 38 1019.0
20260905114500 94 270 3.5 9.6 0.00 0.00 0.00 38 1019.0
20260905113937 94 293 3.5 12.2 0.00 0.00 0.00 37 1019.0
20260905113434 94 251 5.2 12.2 0.00 0.00 0.00 38 1019.0
20260905112931 94 282 4.3 7.8 0.00 0.00 0.00 37 1019.0
20260905112428 94 253 4.3 8.7 0.00 0.00 0.00 37 1019.0
20260905111927 95 323 4.3 9.6 0.00 0.00 0.00 36 1018.9
20260905111424 94 256 4.3 11.3 0.00 0.00 0.00 37 1018.9
20260905110953 94 254 5.2 10.4 0.00 0.00 0.00 37 1019.0
20260905110449 94 242 6.1 9.6 0.00 0.00 0.00 37 1019.0
20260905105944 94 235 3.5 12.2 0.00 0.00 0.00 37 1019.0
20260905105441 94 193 7.8 12.2 0.00 0.00 0.00 37 1019.0
20260905104939 94 283 6.1 11.3 0.00 0.00 0.00 37 1019.1
20260905104432 95 278 5.2 10.4 0.00 0.00 0.00 35 1019.1
20260905103929 95 250 3.5 8.7 0.00 0.00 0.00 35 1019.0
20260905103427 95 284 3.5 7.8 0.00 0.00 0.00 34 1019.1
20260905102924 94 265 2.6 8.7 0.00 0.00 0.00 33 1019.1
20260905102452 94 237 4.3 8.7 0.00 0.00 0.00 33 1019.1
20260905101951 94 299 2.6 7.0 0.00 0.00 0.00 33 1019.2
20260905101427 94 260 2.6 9.6 0.00 0.00 0.00 33 1019.1
20260905100924 94 238 3.5 9.6 0.00 0.00 0.00 33 1019.1
20260905100452 94 253 4.3 7.8 0.00 0.00 0.00 34 1019.2
20260905095950 94 260 2.6 7.8 0.00 0.00 0.00 34 1019.3
20260905095447 93 250 3.5 7.8 0.00 0.00 0.00 35 1019.3
20260905094940 93 296 0.9 7.0 0.00 0.00 0.00 34 1019.3
20260905094436 93 238 1.7 4.3 0.00 0.00 0.00 35 1019.4
20260905093934 92 237 0.9 3.5 0.00 0.00 0.00 36 1019.3
20260905093431 92 221 0.9 4.3 0.00 0.00 0.00 36 1019.2
20260905092926 91 258 0.9 4.3 0.00 0.00 0.00 36 1019.3
20260905092454 91 215 0.9 4.3 0.00 0.00 0.00 37 1019.4
20260905091950 90 260 2.6 5.2 0.00 0.00 0.00 37 1019.4
20260905091425 90 265 0.9 3.5 0.00 0.00 0.00 38 1019.4
20260905090952 89 246 0.9 3.5 0.00 0.00 0.00 39 1019.3
20260905090448 89 226 0.9 3.5 0.00 0.00 0.00 40 1019.3
20260905085949 88 236 1.7 4.3 0.00 0.00 0.00 40 1019.3
20260905085445 88 317 1.7 4.3 0.00 0.00 0.00 40 1019.3
20260905084942 88 317 1.7 3.5 0.00 0.00 0.00 40 1019.4
20260905084437 88 259 0.0 3.5 0.00 0.00 0.00 42 1019.3
20260905084003 87 138 0.9 5.2 0.00 0.00 0.00 43 1019.3
20260905083438 87 133 1.7 5.2 0.00 0.00 0.00 43 1019.2
20260905082934 86 304 0.9 2.6 0.00 0.00 0.00 44 1019.3
20260905082430 86 304 0.9 3.5 0.00 0.00 0.00 44 1019.4
20260905081925 86 281 0.9 3.5 0.00 0.00 0.00 44 1019.4
20260905081454 86 228 0.0 3.5 0.00 0.00 0.00 45 1019.4
20260905080929 85 308 1.7 3.5 0.00 0.00 0.00 45 1019.4
20260905080449 85 216 0.9 1.7 0.00 0.00 0.00 44 1019.3